Voltar ao catálogo

FENGYUN 1C DEB

AtivoPO
NORAD 36990·DEBRIS·🇨🇳 China

Lançado May 10, 1999 de Taiyuan Satellite Launch Center

Loading…

Próximas Passagens (próximas 24 horas)

TLE

EnvelhecendoSource: Space-Track

Época: Sep 5, 2026, 21:26 UTC

1 36990U 99025EBW 26248.89333552  .00000297  00000-0  34012-3 0  9993
2 36990  96.5751 114.7307 0290700  11.9440 348.8411 13.57210866865111

Acompanhe FENGYUN 1C DEB em tempo real com AllMySat

Download on the App Store